Regional Weather Roundup
Issued by NWS State College, PA

Home | Current Version | Previous Version | Text Only | Print | Product List | Glossary Off
Versions: 1 2 3 4 5 6 7 8 9 10 11 12 13 14 15 16 17 18 19 20 21 22 23 24 25 26 27 28 29 30 31 32 33 34 35 36 37 38 39 40 41 42 43 44 45 46 47 48 49 50

000
ASUS41 KCTP 171310
RWRCTP

REGIONAL WEATHER ROUNDUP
NATIONAL WEATHER SERVICE STATE COLLEGE PA
800 AM EST SAT FEB 17 2018

Note: "fair" indicates few or no clouds below 12,000 feet with no
significant weather and/or obstructions to visibility.

* = STATION THAT DOES NOT REPORT PRECIPITATION /E.G. RAIN...SNOW...ETC/
    THUNDER OR FOG.

PAZ002>004-007>009-013>016-020>023-029>032-171400-
WESTERN PENNSYLVANIA

CITY           SKY/WX    TMP DP  RH WIND       PRES   REMARKS
ERIE           CLOUDY    26  16  65 S8        30.27F
MEADVILLE      CLOUDY    23  16  74 CALM      30.23F
FRANKLIN*      FAIR      17  13  84 S6        30.24F WCI   9
NEW CASTLE     CLOUDY    25  18  74 VRB3      30.26F
BEAVER COUNTY  NOT AVBL
BUTLER*        FAIR      23  16  74 E7        30.26S WCI  15
PITTSBURGH INT CLOUDY    27  19  72 SE5       30.24R
PITTSBURGH     FAIR      25  17  72 E3        30.24F
INDIANA*       CLEAR     21  19  93 E3        30.31R
LATROBE        PTCLDY    23  18  80 CALM      30.26F
WASHINGTON CO* FAIR      27  21  78 NE3       30.27S
$$

PAZ004>006-010>012-017>019-024>028-033>037-041-042-045-046-049>053-171400-
CENTRAL PENNSYLVANIA

CITY           SKY/WX    TMP DP  RH WIND       PRES   REMARKS
BRADFORD       FAIR      13  10  88 CALM      30.20F
DUBOIS         FAIR      15  12  88 CALM      30.22F
CLEARFIELD     FAIR      18  15  88 CALM      30.27S
JOHNSTOWN      FAIR      20  16  84 E5        30.19F WCI  13
ALTOONA        FAIR      23  16  74 E3        30.28F
STATE COLLEGE  CLEAR     21  16  79 CALM      30.30S
WILLIAMSPORT   FAIR      24  17  74 N3        30.36S
SELINSGROVE    FAIR      25  19  78 CALM      30.38F
FT INDIANTOWN  FAIR      26  20  77 CALM      30.37S
CAPITAL CITY   FAIR      28  22  78 CALM      30.37S
HARRISBURG     FAIR      28  20  71 CALM      30.37S
YORK           FAIR      25  24  96 CALM      30.36S
$$

PAZ038>040-043-044-047-048-054-055-060>062-067>071-171400-
EASTERN PENNSYLVANIA

CITY           SKY/WX    TMP DP  RH WIND       PRES   REMARKS
SCRANTON       FAIR      22  15  75 E3        30.34R
MOUNT POCONO   NOT AVBL
ALLENTOWN      FAIR      27  17  66 NE6       30.39S
QUAKERTOWN*    NOT AVBL
READING        FAIR      28  18  66 NE5       30.38S
LANCASTER      FAIR      29  21  72 N5        30.37F
COATESVILLE    FAIR      28 N/A N/A NE3       30.37F
POTTSTOWN      FAIR      27  15  61 NE5       30.40R
BLUE BELL      FAIR      28  18  64 CALM      30.41S
DOYLESTOWN     FAIR      25  32 100 N6        30.39R
WILLOW GROVE   NOT AVBL
NORTH PHILA    FAIR      31  17  56 N6        30.42R
PHILADELPHIA   PTSUNNY   30  15  53 NE9       30.41R
$$




USA.gov is the U.S. government's official web portal to all federal, state and local government web resources and services.